Location: Newark
(3.1475°N, 101.6933°E)
Time: 16:06:11
(UTC+00:00)

N. Korean satellite - Visible Passes

Search period start: 23 October 2019 00:00
Search period end: 02 November 2019 00:00
Orbit: 455 x 508 km, 97.2° (Epoch: 22 October)

Date Brightness Start Highest point End Pass type
(mag) Time Alt. Az. Time Alt. Az. Time Alt. Az.
23 Oct 7.6 22:34:42 10° NNE 22:38:20 54° ESE 22:41:58 10° S visible
24 Oct 9.7 22:10:16 10° NE 22:13:05 21° E 22:15:55 10° SSE visible
25 Oct 10.3 11:33:47 10° SW 11:35:17 12° W 11:36:48 10° WNW visible
27 Oct 8.3 22:27:00 10° NNE 22:30:29 39° E 22:33:59 10° S visible
28 Oct 10.1 22:02:56 10° ENE 22:05:14 16° E 22:07:33 10° SE visible
29 Oct 9.9 11:25:08 10° SW 11:27:23 17° W 11:29:38 10° WNW visible
31 Oct 9.0 22:19:21 10° NE 22:22:37 29° E 22:25:52 10° SSE visible
01 Nov 10.3 21:55:52 10° ENE 21:57:21 12° E 21:58:48 10° SE visible
